EW9582 Weather Reports


time (UTC)temp
C
wind
direction
speed
KPH
gust
KPH
rain 1hr
cm
rain 24hr
cm
rain mn
cm
humidity
%
barometer
mb
20260504044546 21 293 4.8 6.4 0.00 0.00 0.00 64 1013.5
20260504043038 22 284 4.8 6.4 0.00 0.00 0.00 68 1013.3
20260504041535 23 338 1.6 4.8 0.00 0.00 0.00 68 1013.1
20260504040042 24 322 1.6 8.0 0.00 0.00 0.00 70 1013.1
20260504034529 24 218 1.6 8.0 0.00 0.00 0.00 69 1012.9
20260504033027 25 43 0.0 1.6 0.00 0.00 0.00 67 1012.8
20260504031528 25 286 0.0 6.4 0.00 0.00 0.00 69 1012.8
20260504030025 25 256 3.2 9.7 0.00 0.00 0.00 70 1012.6
20260504024521 25 255 1.6 9.7 0.00 0.00 0.00 72 1012.6
20260504023020 25 238 4.8 9.7 0.00 0.00 0.00 71 1012.5
20260504021519 26 229 3.2 11.3 0.00 0.00 0.00 70 1012.6
20260504020017 26 222 6.4 12.9 0.00 0.00 0.00 70 1012.4
20260504014513 26 229 6.4 11.3 0.00 0.00 0.00 62 1012.2
20260504013013 26 171 3.2 11.3 0.00 0.00 0.00 57 1012.1
20260504011509 27 223 3.2 9.7 0.00 0.00 0.00 55 1012.2
20260504010007 27 221 4.8 9.7 0.00 0.00 0.00 51 1012.3
20260504004506 27 215 4.8 11.3 0.00 0.00 0.00 51 1012.1
20260504003002 27 229 6.4 11.3 0.00 0.00 0.00 52 1012.1
20260504001607 28 211 4.8 12.9 0.00 0.00 0.00 54 1012.0
20260504000058 29 207 3.2 11.3 0.00 0.00 0.00 53 1012.1
20260503234554 29 238 6.4 11.3 0.00 0.00 0.00 51 1012.1
20260503233052 30 216 4.8 12.9 0.00 0.00 0.00 53 1012.0
20260503231553 31 227 3.2 11.3 0.00 0.00 0.00 49 1011.9
20260503230050 30 163 3.2 11.3 0.00 0.00 0.00 50 1012.1
20260503224549 31 152 0.0 11.3 0.00 0.00 0.00 51 1012.2
20260503223048 31 192 1.6 8.0 0.00 0.00 0.00 52 1012.2
20260503221547 30 188 0.0 9.7 0.00 0.00 0.00 53 1012.2
20260503220044 30 196 1.6 8.0 0.00 0.00 0.00 55 1012.4
20260503214541 30 196 0.0 6.4 0.00 0.00 0.00 56 1012.4
20260503213044 30 190 0.0 6.4 0.00 0.00 0.00 57 1012.5
20260503211538 30 224 0.0 4.8 0.00 0.00 0.00 55 1012.6
20260503210035 30 120 0.0 3.2 0.00 0.00 0.00 55 1012.8
20260503204533 30 175 0.0 8.0 0.00 0.00 0.00 55 1013.0
20260503203027 30 208 1.6 6.4 0.00 0.00 0.00 59 1013.2
20260503201525 29 133 0.0 6.4 0.00 0.00 0.00 59 1013.2